Location: Del Amo
(33.8464°N, 118.2104°W)
Time: 19:29:58
(UTC+00:00)

Vanguard 1 Rocket - Pass Details

Date: 17 September 2024
Orbit: 650 x 4218 km, 34.3° (Epoch: 04 October)

Event Time Altitude Azimuth Distance (km) Brightness Sun altitude
Rises 17:23:37 0° 289° (WNW) 7,739 11.7 43.7°
Reaches altitude 10° 17:28:41 10° 285° (WNW) 7,007 11.6 44.5°
Maximum altitude 17:52:26 51° 219° (SW) 4,784 11.7 48.3°
Drops below altitude 10° 18:13:06 10° 150° (SSE) 6,143 12.5 51.2°
Sets 18:17:16 0° 145° (SE) 6,769 12.5 51.7°
